Eagle, CO

7:19 PM MDT on April 25, 2017 (GMT -0600)
Eagle County Regional

Weather History for KEGE - May, 2014

Change the Weather History Date:

Wednesday, May 28, 2014

  Actual Average Record
Temperature  
Mean Temperature 62 °F -  
Max Temperature 84 °F 74 °F 87 °F (2003)
Min Temperature 39 °F 36 °F 20 °F (1954)
Degree Days  
Heating Degree Days 4    
Growing Degree Days 12 (Base 50)    
Moisture  
Dew Point 35 °F    
Average Humidity 49    
Maximum Humidity 93    
Minimum Humidity 11    
Precipitation  
Precipitation 0.00 in - - ()
Sea Level Pressure  
Sea Level Pressure 30.24 in    
Wind  
Wind Speed 3 mph (ESE)    
Max Wind Speed 17 mph    
Max Gust Speed 29 mph    
Visibility 10 miles    
Events      
Averages and records for this station are not official NWS values.
T = Trace of Precipitation, MM = Missing Value Source: NWS Daily Summary

Daily Weather History Graph

Daily Weather History Graph

Search for Another Location

Airport or City:

Trip Planner

Search our weather history database for the weather conditions in past years. The results will help you decide how hot, cold, wet, or windy it might be!

Date:

Astronomy

May. 28, 2014 Rise Set
Actual Time 5:43 AM MDT 8:26 PM MDT
Civil Twilight 5:12 AM MDT 8:58 PM MDT
Nautical Twilight 4:32 AM MDT 9:37 PM MDT
Astronomical Twilight 3:48 AM MDT 10:22 PM MDT
Moon 5:52 AM MDT (5/28) 8:27 PM MDT (5/28)
Length of Visible Light 15h 45m
Length of Day
14h 42m
Waning Crescent, 0% of the Moon is Illuminated
May 28
Waning Crescent
May 28
New
Jun 5
First Quarter
Jun 12
Full
Jun 19
Last Quarter

Hourly Weather History & Observations

Time (MDT) Temp. Windchill Dew Point Humidity Pressure Visibility Wind Dir Wind Speed Gust Speed Precip Events Conditions
12:15 AM 51.8 °F - 41.0 °F 67% 30.30 in 10.0 mi SSE 4.6 mph - N/A   Clear
12:55 AM 50.0 °F - 41.0 °F 71% 30.30 in 10.0 mi Calm Calm - N/A   Clear
1:15 AM 48.2 °F - 39.2 °F 71% 30.30 in 10.0 mi ESE 4.6 mph - N/A   Clear
1:35 AM 48.2 °F - 39.2 °F 71% 30.30 in 10.0 mi East 5.8 mph - N/A   Clear
1:55 AM 48.2 °F - 39.2 °F 71% 30.30 in 10.0 mi East 6.9 mph - N/A   Clear
2:15 AM 46.4 °F 42.9 °F 39.2 °F 76% 30.30 in 10.0 mi East 6.9 mph - N/A   Clear
2:35 AM 46.4 °F 45.2 °F 39.2 °F 76% 30.30 in 10.0 mi ESE 3.5 mph - N/A   Clear
2:55 AM 46.4 °F - 39.2 °F 76% 30.31 in 10.0 mi Calm Calm - N/A   Clear
3:15 AM 46.4 °F - 39.2 °F 76% 30.31 in 10.0 mi Calm Calm - N/A   Clear
3:35 AM 44.6 °F 43.1 °F 39.2 °F 81% 30.31 in 10.0 mi East 3.5 mph - N/A   Clear
3:55 AM 44.6 °F 43.1 °F 39.2 °F 81% 30.31 in 10.0 mi ESE 3.5 mph - N/A   Clear
4:15 AM 44.6 °F - 37.4 °F 76% 30.32 in 10.0 mi Calm Calm - N/A   Clear
4:35 AM 44.6 °F 43.1 °F 37.4 °F 76% 30.32 in 10.0 mi ESE 3.5 mph - N/A   Clear
4:55 AM 42.8 °F - 37.4 °F 81% 30.33 in 10.0 mi Calm Calm - N/A   Clear
5:15 AM 42.8 °F 41.1 °F 37.4 °F 81% 30.33 in 10.0 mi ESE 3.5 mph - N/A   Clear
5:35 AM 42.8 °F 41.1 °F 37.4 °F 81% 30.34 in 10.0 mi East 3.5 mph - N/A   Clear
5:55 AM 39.2 °F 35.9 °F 37.4 °F 93% 30.35 in 10.0 mi East 4.6 mph - N/A   Clear
6:15 AM 39.2 °F 35.0 °F 37.4 °F 93% 30.35 in 10.0 mi East 5.8 mph - N/A   Clear
6:35 AM 42.8 °F 40.1 °F 37.4 °F 81% 30.35 in 10.0 mi East 4.6 mph - N/A   Clear
6:50 AM 42.8 °F - 37.4 °F 81% 30.36 in 10.0 mi Calm Calm - N/A   Clear
7:55 AM 50.0 °F - 39.2 °F 66% 30.35 in 10.0 mi Calm Calm - N/A   Clear
8:50 AM 53.6 °F - 39.2 °F 58% 30.34 in 10.0 mi Calm Calm - N/A   Clear
9:50 AM 60.8 °F - 37.4 °F 42% 30.32 in 10.0 mi Calm Calm - N/A   Clear
10:59 AM 66.2 °F - 37.4 °F 35% 30.28 in 10.0 mi Calm Calm - N/A   Clear
11:50 AM 71.6 °F - 39.2 °F 31% 30.26 in 10.0 mi Calm Calm - N/A   Partly Cloudy
12:50 PM 75.2 °F - 35.6 °F 24% 30.22 in 10.0 mi Calm Calm - N/A   Partly Cloudy
1:50 PM 80.6 °F - 28.4 °F 15% 30.18 in 10.0 mi Calm Calm - N/A   Partly Cloudy
2:50 PM 84.2 °F - 26.6 °F 12% 30.15 in 10.0 mi West 6.9 mph - N/A   Partly Cloudy
3:50 PM 84.2 °F - 24.8 °F 11% 30.12 in 10.0 mi Calm Calm - N/A   Scattered Clouds
4:50 PM 84.2 °F - 26.6 °F 12% 30.10 in 10.0 mi WSW 6.9 mph - N/A   Scattered Clouds
5:50 PM 82.4 °F - 24.8 °F 12% 30.08 in 10.0 mi Calm Calm - N/A   Scattered Clouds
6:50 PM 82.4 °F - 28.4 °F 14% 30.08 in 10.0 mi WSW 17.3 mph 28.8 mph N/A   Mostly Cloudy
7:15 PM 78.8 °F - 32.0 °F 18% 30.10 in 10.0 mi SW 13.8 mph - N/A   Clear
7:35 PM 78.8 °F - 28.4 °F 16% 30.11 in 10.0 mi SSW 11.5 mph - N/A   Clear
7:55 PM 77.0 °F - 26.6 °F 16% 30.11 in 10.0 mi West 5.8 mph - N/A   Clear
8:15 PM 73.4 °F - 30.2 °F 20% 30.13 in 10.0 mi NE 6.9 mph - N/A   Clear
8:35 PM 75.2 °F - 28.4 °F 18% 30.12 in 10.0 mi ENE 4.6 mph 20.7 mph N/A   Clear
8:55 PM 75.2 °F - 28.4 °F 18% 30.13 in 10.0 mi NNW 3.5 mph - N/A   Partly Cloudy
9:15 PM 73.4 °F - 30.2 °F 20% 30.13 in 10.0 mi Calm Calm - N/A   Clear
9:55 PM 69.8 °F - 32.0 °F 25% 30.14 in 10.0 mi Calm Calm - N/A   Clear
10:15 PM 68.0 °F - 32.0 °F 26% 30.15 in 10.0 mi ENE 5.8 mph - N/A   Clear
10:35 PM 66.2 °F - 33.8 °F 30% 30.15 in 10.0 mi NNE 3.5 mph - N/A   Clear
10:55 PM 64.4 °F - 33.8 °F 32% 30.16 in 10.0 mi Calm Calm - N/A   Clear
11:15 PM 64.4 °F - 33.8 °F 32% 30.15 in 10.0 mi SE 4.6 mph - N/A   Clear
11:35 PM 62.6 °F - 35.6 °F 37% 30.15 in 10.0 mi Calm Calm - N/A   Clear